| time (UTC) | temp C | wind direction | speed KPH | gust KPH | rain 1hr cm | rain 24hr cm | rain mn cm | humidity % | barometer mb |
| 20260505140537 | 11 | 190 | 1.6 | 6.4 | 0.00 | 0.00 | 0.00 | 85 | 1015.3 |
| 20260505125039 | 11 | 0 | 0.0 | 1.6 | 0.00 | 0.00 | 0.00 | 86 | 1015.0 |
| 20260505124553 | 11 | 0 | 0.0 | 8.0 | 0.00 | 0.00 | 0.00 | 87 | 1014.8 |
| 20260505124036 | 11 | 0 | 1.6 | 8.0 | 0.00 | 0.00 | 0.00 | 87 | 1014.8 |
| 20260505123540 | 11 | 161 | 0.0 | 4.8 | 0.00 | 0.00 | 0.00 | 87 | 1014.7 |
| 20260505123045 | 11 | 141 | 0.0 | 3.2 | 0.00 | 0.00 | 0.00 | 87 | 1014.7 |
| 20260505122540 | 11 | 0 | 0.0 | 3.2 | 0.00 | 0.00 | 0.00 | 87 | 1014.7 |
| 20260505122040 | 11 | 0 | 0.0 | 3.2 | 0.00 | 0.00 | 0.00 | 87 | 1014.8 |
| 20260505121548 | 11 | 0 | 0.0 | 3.2 | 0.00 | 0.00 | 0.00 | 87 | 1014.8 |
| 20260505121040 | 11 | 0 | 0.0 | 3.2 | 0.00 | 0.00 | 0.00 | 88 | 1014.7 |
| 20260505120539 | 11 | 0 | 0.0 | 0.0 | 0.00 | 0.00 | 0.00 | 88 | 1014.7 |
| 20260505120043 | 11 | 0 | 0.0 | 0.0 | 0.00 | 0.00 | 0.00 | 87 | 1014.7 |
| 20260505115539 | 11 | 0 | 0.0 | 1.6 | 0.00 | 0.00 | 0.00 | 88 | 1014.6 |
| 20260505115039 | 11 | 0 | 0.0 | 1.6 | 0.00 | 0.00 | 0.00 | 88 | 1014.7 |
| 20260505114542 | 11 | 221 | 0.0 | 1.6 | 0.00 | 0.00 | 0.00 | 88 | 1014.7 |
| 20260505114041 | 11 | 0 | 0.0 | 0.0 | 0.00 | 0.00 | 0.00 | 88 | 1014.7 |
| 20260505113539 | 11 | 0 | 0.0 | 0.0 | 0.00 | 0.00 | 0.00 | 88 | 1014.6 |
| 20260505113053 | 10 | 0 | 0.0 | 0.0 | 0.00 | 0.00 | 0.00 | 88 | 1014.6 |
| 20260505112540 | 10 | 0 | 0.0 | 1.6 | 0.00 | 0.00 | 0.00 | 88 | 1014.6 |
| 20260505112039 | 10 | 0 | 0.0 | 6.4 | 0.00 | 0.00 | 0.00 | 88 | 1014.6 |
| 20260505111548 | 10 | 0 | 0.0 | 6.4 | 0.00 | 0.00 | 0.00 | 88 | 1014.6 |
| 20260505111040 | 10 | 0 | 0.0 | 3.2 | 0.00 | 0.00 | 0.00 | 88 | 1014.6 |
| 20260505110538 | 10 | 0 | 0.0 | 4.8 | 0.00 | 0.00 | 0.00 | 87 | 1014.5 |
| 20260505102039 | 10 | 192 | 0.0 | 3.2 | 0.00 | 0.00 | 0.00 | 85 | 1014.1 |
| 20260505101551 | 10 | 191 | 0.0 | 3.2 | 0.00 | 0.00 | 0.00 | 85 | 1014.1 |
| 20260505101039 | 10 | 0 | 0.0 | 3.2 | 0.00 | 0.00 | 0.00 | 85 | 1014.1 |
| 20260505100542 | 10 | 0 | 0.0 | 3.2 | 0.00 | 0.00 | 0.00 | 84 | 1014.1 |
| 20260505100049 | 10 | 0 | 0.0 | 1.6 | 0.00 | 0.00 | 0.00 | 84 | 1014.1 |
| 20260505095542 | 10 | 0 | 0.0 | 0.0 | 0.00 | 0.00 | 0.00 | 84 | 1014.2 |
| 20260505095038 | 11 | 0 | 0.0 | 0.0 | 0.00 | 0.00 | 0.00 | 84 | 1014.1 |
| 20260505094606 | 11 | 0 | 0.0 | 0.0 | 0.00 | 0.00 | 0.00 | 83 | 1014.2 |
| 20260505094039 | 11 | 0 | 0.0 | 0.0 | 0.00 | 0.00 | 0.00 | 83 | 1014.2 |
| 20260505093542 | 11 | 0 | 0.0 | 0.0 | 0.00 | 0.00 | 0.00 | 84 | 1014.1 |
| 20260505093054 | 11 | 0 | 0.0 | 4.8 | 0.00 | 0.00 | 0.00 | 83 | 1014.0 |
| 20260505092544 | 11 | 0 | 0.0 | 4.8 | 0.00 | 0.00 | 0.00 | 83 | 1014.0 |
| 20260505092037 | 11 | 104 | 0.0 | 4.8 | 0.00 | 0.00 | 0.00 | 83 | 1013.9 |
| 20260505091549 | 11 | 0 | 0.0 | 6.4 | 0.00 | 0.00 | 0.00 | 83 | 1013.9 |
| 20260505091037 | 11 | 163 | 0.0 | 6.4 | 0.00 | 0.00 | 0.00 | 83 | 1013.9 |
| 20260505090537 | 11 | 166 | 1.6 | 4.8 | 0.00 | 0.00 | 0.00 | 83 | 1013.8 |
| 20260505090058 | 11 | 0 | 0.0 | 6.4 | 0.00 | 0.00 | 0.00 | 83 | 1013.8 |
| 20260505085537 | 11 | 0 | 1.6 | 6.4 | 0.00 | 0.00 | 0.00 | 82 | 1013.7 |
| 20260505085037 | 11 | 0 | 0.0 | 6.4 | 0.00 | 0.00 | 0.00 | 82 | 1013.7 |
| 20260505084553 | 11 | 0 | 0.0 | 6.4 | 0.00 | 0.00 | 0.00 | 82 | 1013.6 |
| 20260505084036 | 11 | 184 | 1.6 | 6.4 | 0.00 | 0.00 | 0.00 | 82 | 1013.7 |
| 20260505083536 | 11 | 167 | 0.0 | 6.4 | 0.00 | 0.00 | 0.00 | 81 | 1013.7 |
| 20260505083056 | 12 | 165 | 0.0 | 6.4 | 0.00 | 0.00 | 0.00 | 81 | 1013.8 |
| 20260505082537 | 12 | 0 | 1.6 | 6.4 | 0.00 | 0.00 | 0.00 | 81 | 1013.7 |
| 20260505082037 | 12 | 166 | 0.0 | 6.4 | 0.00 | 0.00 | 0.00 | 80 | 1013.7 |
| 20260505081558 | 12 | 0 | 0.0 | 6.4 | 0.00 | 0.00 | 0.00 | 80 | 1013.6 |
| 20260505081038 | 12 | 0 | 0.0 | 6.4 | 0.00 | 0.00 | 0.00 | 80 | 1013.6 |
| 20260505080536 | 12 | 0 | 0.0 | 6.4 | 0.00 | 0.00 | 0.00 | 80 | 1013.5 |
| 20260505080051 | 12 | 152 | 1.6 | 6.4 | 0.00 | 0.00 | 0.00 | 79 | 1013.5 |
| 20260505075540 | 12 | 0 | 0.0 | 6.4 | 0.00 | 0.00 | 0.00 | 79 | 1013.5 |
| 20260505075037 | 12 | 0 | 0.0 | 0.0 | 0.00 | 0.00 | 0.00 | 79 | 1013.5 |
| 20260505074548 | 12 | 0 | 0.0 | 8.0 | 0.00 | 0.00 | 0.00 | 79 | 1013.4 |
| 20260505074040 | 12 | 0 | 1.6 | 8.0 | 0.00 | 0.00 | 0.00 | 79 | 1013.3 |
| 20260505073536 | 12 | 163 | 1.6 | 6.4 | 0.00 | 0.00 | 0.00 | 79 | 1013.2 |
| 20260505073047 | 12 | 188 | 1.6 | 8.0 | 0.00 | 0.00 | 0.00 | 78 | 1013.2 |
| 20260505072538 | 13 | 183 | 1.6 | 8.0 | 0.00 | 0.00 | 0.00 | 78 | 1013.1 |
| 20260505072037 | 13 | 169 | 3.2 | 8.0 | 0.00 | 0.00 | 0.00 | 78 | 1013.1 |
| 20260505071551 | 13 | 161 | 3.2 | 8.0 | 0.00 | 0.00 | 0.00 | 78 | 1013.1 |
| 20260505071037 | 13 | 182 | 0.0 | 6.4 | 0.00 | 0.00 | 0.00 | 78 | 1013.0 |
| 20260505070541 | 13 | 137 | 1.6 | 9.7 | 0.00 | 0.00 | 0.00 | 78 | 1013.0 |
| 20260505070051 | 13 | 102 | 3.2 | 9.7 | 0.00 | 0.00 | 0.00 | 78 | 1013.0 |
| 20260505065539 | 13 | 159 | 1.6 | 6.4 | 0.00 | 0.00 | 0.00 | 77 | 1013.0 |
| 20260505065038 | 13 | 131 | 0.0 | 6.4 | 0.00 | 0.00 | 0.00 | 77 | 1012.9 |
| 20260505064549 | 13 | 174 | 1.6 | 9.7 | 0.00 | 0.00 | 0.00 | 77 | 1012.8 |
| 20260505064038 | 13 | 130 | 3.2 | 9.7 | 0.00 | 0.00 | 0.00 | 77 | 1012.7 |
| 20260505063540 | 13 | 166 | 3.2 | 9.7 | 0.00 | 0.00 | 0.00 | 76 | 1012.7 |
| 20260505063048 | 13 | 153 | 0.0 | 3.2 | 0.00 | 0.00 | 0.00 | 75 | 1012.6 |
| 20260505062539 | 14 | 0 | 0.0 | 6.4 | 0.00 | 0.00 | 0.00 | 75 | 1012.5 |
| 20260505062040 | 14 | 0 | 1.6 | 8.0 | 0.00 | 0.00 | 0.00 | 75 | 1012.5 |
| 20260505061552 | 14 | 0 | 1.6 | 8.0 | 0.00 | 0.00 | 0.00 | 75 | 1012.4 |
| 20260505061038 | 14 | 0 | 1.6 | 6.4 | 0.00 | 0.00 | 0.00 | 74 | 1012.3 |
| 20260505060537 | 14 | 0 | 1.6 | 8.0 | 0.00 | 0.00 | 0.00 | 74 | 1012.4 |
| 20260505060049 | 15 | 113 | 0.0 | 9.7 | 0.00 | 0.00 | 0.00 | 74 | 1012.3 |
| 20260505055539 | 15 | 117 | 3.2 | 9.7 | 0.00 | 0.00 | 0.00 | 74 | 1012.3 |
| 20260505055039 | 15 | 109 | 3.2 | 9.7 | 0.00 | 0.00 | 0.00 | 73 | 1012.3 |
| 20260505054554 | 15 | 168 | 3.2 | 9.7 | 0.00 | 0.00 | 0.00 | 73 | 1012.2 |
| 20260505054037 | 15 | 0 | 3.2 | 11.3 | 0.00 | 0.00 | 0.00 | 73 | 1012.2 |
| 20260505053537 | 15 | 188 | 1.6 | 11.3 | 0.00 | 0.00 | 0.00 | 72 | 1012.1 |
| 20260505053044 | 15 | 150 | 3.2 | 12.9 | 0.00 | 0.00 | 0.00 | 72 | 1012.1 |
| 20260505052537 | 16 | 121 | 4.8 | 12.9 | 0.00 | 0.00 | 0.00 | 71 | 1012.0 |
| 20260505052037 | 16 | 155 | 3.2 | 9.7 | 0.00 | 0.00 | 0.00 | 71 | 1011.9 |
| 20260505051543 | 16 | 208 | 1.6 | 8.0 | 0.00 | 0.00 | 0.00 | 69 | 1012.0 |
| 20260505051038 | 16 | 238 | 0.0 | 3.2 | 0.00 | 0.00 | 0.00 | 68 | 1011.9 |
| 20260505050539 | 16 | 0 | 0.0 | 1.6 | 0.00 | 0.00 | 0.00 | 68 | 1011.9 |
| 20260505041548 | 18 | 178 | 1.6 | 9.7 | 0.00 | 0.00 | 0.00 | 64 | 1011.0 |
| 20260505041037 | 18 | 225 | 3.2 | 9.7 | 0.00 | 0.00 | 0.00 | 63 | 1011.0 |
| 20260505040537 | 18 | 221 | 1.6 | 11.3 | 0.00 | 0.00 | 0.00 | 63 | 1010.9 |
| 20260505035541 | 19 | 250 | 3.2 | 6.4 | 0.00 | 0.00 | 0.00 | 62 | 1010.7 |
| 20260505035037 | 19 | 0 | 1.6 | 9.7 | 0.00 | 0.00 | 0.00 | 62 | 1010.7 |
| 20260505034545 | 19 | 219 | 1.6 | 9.7 | 0.00 | 0.00 | 0.00 | 62 | 1010.6 |
| 20260505034037 | 20 | 0 | 1.6 | 9.7 | 0.00 | 0.00 | 0.00 | 62 | 1010.5 |
| 20260505033537 | 20 | 169 | 1.6 | 9.7 | 0.00 | 0.00 | 0.00 | 61 | 1010.4 |
| 20260505033045 | 20 | 220 | 1.6 | 11.3 | 0.00 | 0.00 | 0.00 | 61 | 1010.4 |
| 20260505032540 | 20 | 241 | 0.0 | 11.3 | 0.00 | 0.00 | 0.00 | 60 | 1010.4 |
| 20260505032038 | 20 | 202 | 4.8 | 11.3 | 0.00 | 0.00 | 0.00 | 60 | 1010.3 |
| 20260505031555 | 21 | 211 | 1.6 | 9.7 | 0.00 | 0.00 | 0.00 | 60 | 1010.2 |
| 20260505031045 | 21 | 219 | 1.6 | 8.0 | 0.00 | 0.00 | 0.00 | 60 | 1010.2 |
| 20260505030539 | 21 | 0 | 1.6 | 8.0 | 0.00 | 0.00 | 0.00 | 60 | 1010.2 |
| 20260505030054 | 21 | 175 | 1.6 | 6.4 | 0.00 | 0.00 | 0.00 | 60 | 1010.1 |
| 20260505025540 | 21 | 0 | 1.6 | 8.0 | 0.00 | 0.00 | 0.00 | 59 | 1010.0 |
| 20260505025040 | 21 | 213 | 1.6 | 12.9 | 0.00 | 0.00 | 0.00 | 59 | 1009.9 |
| 20260505024551 | 22 | 224 | 1.6 | 14.5 | 0.00 | 0.00 | 0.00 | 58 | 1009.9 |
| 20260505024039 | 22 | 167 | 4.8 | 14.5 | 0.00 | 0.00 | 0.00 | 58 | 1009.9 |
| 20260505023540 | 22 | 221 | 3.2 | 14.5 | 0.00 | 0.00 | 0.00 | 57 | 1009.8 |
| 20260505023051 | 22 | 194 | 3.2 | 14.5 | 0.00 | 0.00 | 0.00 | 57 | 1009.9 |
| 20260505022540 | 23 | 231 | 1.6 | 14.5 | 0.00 | 0.00 | 0.00 | 57 | 1009.8 |
| 20260505022039 | 23 | 217 | 4.8 | 14.5 | 0.00 | 0.00 | 0.00 | 56 | 1009.8 |
| 20260505021549 | 23 | 225 | 3.2 | 14.5 | 0.00 | 0.00 | 0.00 | 56 | 1009.8 |
| 20260505021040 | 23 | 0 | 3.2 | 14.5 | 0.00 | 0.00 | 0.00 | 56 | 1009.8 |
| 20260505020539 | 23 | 239 | 3.2 | 11.3 | 0.00 | 0.00 | 0.00 | 56 | 1009.8 |
| 20260505020052 | 24 | 186 | 3.2 | 11.3 | 0.00 | 0.00 | 0.00 | 55 | 1009.7 |
| 20260505015539 | 24 | 229 | 3.2 | 9.7 | 0.00 | 0.00 | 0.00 | 54 | 1009.7 |
| 20260505015039 | 25 | 182 | 1.6 | 14.5 | 0.00 | 0.00 | 0.00 | 53 | 1009.7 |
| 20260505014603 | 25 | 184 | 3.2 | 14.5 | 0.00 | 0.00 | 0.00 | 53 | 1009.7 |
| 20260505014042 | 25 | 194 | 6.4 | 14.5 | 0.00 | 0.00 | 0.00 | 52 | 1009.7 |
| 20260505013538 | 25 | 240 | 3.2 | 16.1 | 0.00 | 0.00 | 0.00 | 51 | 1009.7 |
| 20260505013049 | 25 | 213 | 4.8 | 16.1 | 0.00 | 0.00 | 0.00 | 52 | 1009.9 |
| 20260505012539 | 25 | 234 | 1.6 | 9.7 | 0.00 | 0.00 | 0.00 | 53 | 1009.8 |
| 20260505012041 | 25 | 181 | 3.2 | 12.9 | 0.00 | 0.00 | 0.00 | 52 | 1009.8 |
| 20260505011548 | 26 | 215 | 3.2 | 12.9 | 0.00 | 0.00 | 0.00 | 52 | 1009.9 |
| 20260505011039 | 26 | 194 | 3.2 | 12.9 | 0.00 | 0.00 | 0.00 | 51 | 1009.9 |
| 20260505010543 | 26 | 240 | 3.2 | 12.9 | 0.00 | 0.00 | 0.00 | 51 | 1010.0 |
| 20260505010049 | 26 | 173 | 1.6 | 9.7 | 0.00 | 0.00 | 0.00 | 51 | 1010.1 |
| 20260505005539 | 26 | 181 | 4.8 | 11.3 | 0.00 | 0.00 | 0.00 | 51 | 1010.0 |
| 20260505005039 | 26 | 0 | 3.2 | 12.9 | 0.00 | 0.00 | 0.00 | 51 | 1010.1 |
| 20260505004555 | 26 | 0 | 4.8 | 14.5 | 0.00 | 0.00 | 0.00 | 51 | 1010.1 |
| 20260505004038 | 26 | 133 | 3.2 | 14.5 | 0.00 | 0.00 | 0.00 | 50 | 1010.1 |
| 20260505003538 | 26 | 194 | 3.2 | 17.7 | 0.00 | 0.00 | 0.00 | 50 | 1010.1 |
| 20260505003046 | 26 | 191 | 6.4 | 17.7 | 0.00 | 0.00 | 0.00 | 50 | 1010.1 |
| 20260505002542 | 26 | 172 | 4.8 | 12.9 | 0.00 | 0.00 | 0.00 | 50 | 1010.1 |
| 20260505002039 | 26 | 248 | 4.8 | 14.5 | 0.00 | 0.00 | 0.00 | 50 | 1010.2 |
| 20260505001545 | 26 | 209 | 3.2 | 16.1 | 0.00 | 0.00 | 0.00 | 50 | 1010.3 |
| 20260505001038 | 26 | 153 | 4.8 | 16.1 | 0.00 | 0.00 | 0.00 | 49 | 1010.3 |
| 20260505000539 | 26 | 185 | 4.8 | 14.5 | 0.00 | 0.00 | 0.00 | 50 | 1010.2 |
| 20260505000057 | 26 | 209 | 1.6 | 11.3 | 0.00 | 0.00 | 0.00 | 51 | 1010.3 |
| 20260504235542 | 26 | 172 | 1.6 | 11.3 | 0.00 | 0.00 | 0.00 | 51 | 1010.3 |
| 20260504235041 | 26 | 145 | 3.2 | 12.9 | 0.00 | 0.00 | 0.00 | 51 | 1010.2 |
| 20260504234547 | 26 | 209 | 4.8 | 12.9 | 0.00 | 0.00 | 0.00 | 50 | 1010.3 |
| 20260504234039 | 25 | 198 | 3.2 | 12.9 | 0.00 | 0.00 | 0.00 | 51 | 1010.4 |
| 20260504233539 | 25 | 245 | 3.2 | 14.5 | 0.00 | 0.00 | 0.00 | 51 | 1010.5 |
| 20260504233052 | 25 | 202 | 3.2 | 16.1 | 0.00 | 0.00 | 0.00 | 52 | 1010.6 |
| 20260504232539 | 25 | 183 | 8.0 | 17.7 | 0.00 | 0.00 | 0.00 | 51 | 1010.6 |
| 20260504232040 | 25 | 115 | 8.0 | 17.7 | 0.00 | 0.00 | 0.00 | 50 | 1010.5 |
| 20260504231549 | 25 | 174 | 8.0 | 17.7 | 0.00 | 0.00 | 0.00 | 51 | 1010.6 |
| 20260504231038 | 25 | 157 | 8.0 | 20.9 | 0.00 | 0.00 | 0.00 | 50 | 1010.6 |
| 20260504230538 | 25 | 165 | 9.7 | 20.9 | 0.00 | 0.00 | 0.00 | 50 | 1010.7 |
| 20260504230050 | 26 | 161 | 4.8 | 14.5 | 0.00 | 0.00 | 0.00 | 50 | 1010.8 |
| 20260504225540 | 25 | 130 | 6.4 | 16.1 | 0.00 | 0.00 | 0.00 | 50 | 1010.8 |
| 20260504225041 | 25 | 166 | 6.4 | 16.1 | 0.00 | 0.00 | 0.00 | 50 | 1010.8 |
| 20260504224554 | 25 | 128 | 4.8 | 16.1 | 0.00 | 0.00 | 0.00 | 50 | 1010.9 |
| 20260504224039 | 25 | 119 | 6.4 | 16.1 | 0.00 | 0.00 | 0.00 | 50 | 1010.9 |
| 20260504223540 | 26 | 165 | 8.0 | 16.1 | 0.00 | 0.00 | 0.00 | 49 | 1010.9 |
| 20260504223047 | 25 | 161 | 8.0 | 14.5 | 0.00 | 0.00 | 0.00 | 49 | 1011.0 |
| 20260504222542 | 25 | 197 | 6.4 | 14.5 | 0.00 | 0.00 | 0.00 | 50 | 1011.0 |
| 20260504222039 | 25 | 244 | 4.8 | 14.5 | 0.00 | 0.00 | 0.00 | 52 | 1011.1 |
| 20260504221544 | 25 | 100 | 6.4 | 16.1 | 0.00 | 0.00 | 0.00 | 51 | 1011.2 |
| 20260504221039 | 25 | 175 | 4.8 | 16.1 | 0.00 | 0.00 | 0.00 | 49 | 1011.2 |
| 20260504220539 | 25 | 121 | 6.4 | 16.1 | 0.00 | 0.00 | 0.00 | 50 | 1011.3 |
| 20260504220046 | 25 | 193 | 3.2 | 16.1 | 0.00 | 0.00 | 0.00 | 51 | 1011.3 |
| 20260504215539 | 25 | 246 | 3.2 | 12.9 | 0.00 | 0.00 | 0.00 | 48 | 1011.3 |
| 20260504215039 | 25 | 165 | 4.8 | 12.9 | 0.00 | 0.00 | 0.00 | 50 | 1011.4 |
| 20260504214554 | 25 | 189 | 4.8 | 11.3 | 0.00 | 0.00 | 0.00 | 52 | 1011.4 |
| 20260504214039 | 25 | 295 | 3.2 | 11.3 | 0.00 | 0.00 | 0.00 | 52 | 1011.6 |
| 20260504213539 | 24 | 0 | 1.6 | 11.3 | 0.00 | 0.00 | 0.00 | 52 | 1011.5 |
| 20260504213056 | 24 | 157 | 1.6 | 14.5 | 0.00 | 0.00 | 0.00 | 52 | 1011.7 |
| 20260504212538 | 23 | 161 | 3.2 | 14.5 | 0.00 | 0.00 | 0.00 | 53 | 1011.7 |
| 20260504212043 | 23 | 116 | 4.8 | 14.5 | 0.00 | 0.00 | 0.00 | 53 | 1011.9 |
| 20260504211549 | 23 | 159 | 3.2 | 11.3 | 0.00 | 0.00 | 0.00 | 53 | 1012.0 |
| 20260504211041 | 23 | 0 | 3.2 | 11.3 | 0.00 | 0.00 | 0.00 | 53 | 1012.0 |
| 20260504210539 | 23 | 227 | 1.6 | 14.5 | 0.00 | 0.00 | 0.00 | 54 | 1012.2 |
| 20260504210058 | 23 | 149 | 4.8 | 14.5 | 0.00 | 0.00 | 0.00 | 53 | 1012.3 |
| 20260504205625 | 23 | 154 | 6.4 | 14.5 | 0.00 | 0.00 | 0.00 | 55 | 1012.4 |
| 20260504205038 | 22 | 227 | 4.8 | 14.5 | 0.00 | 0.00 | 0.00 | 55 | 1012.4 |
| 20260504204557 | 22 | 223 | 3.2 | 14.5 | 0.00 | 0.00 | 0.00 | 56 | 1012.4 |
| 20260504204039 | 22 | 141 | 3.2 | 12.9 | 0.00 | 0.00 | 0.00 | 57 | 1012.6 |
| 20260504203539 | 22 | 163 | 4.8 | 12.9 | 0.00 | 0.00 | 0.00 | 57 | 1012.6 |
| 20260504203052 | 21 | 194 | 3.2 | 11.3 | 0.00 | 0.00 | 0.00 | 58 | 1012.7 |
| 20260504202539 | 21 | 119 | 4.8 | 16.1 | 0.00 | 0.00 | 0.00 | 59 | 1012.7 |
| 20260504202039 | 21 | 217 | 3.2 | 16.1 | 0.00 | 0.00 | 0.00 | 61 | 1012.8 |
| 20260504201542 | 20 | 238 | 8.0 | 16.1 | 0.00 | 0.00 | 0.00 | 61 | 1012.9 |
| 20260504201037 | 20 | 190 | 3.2 | 14.5 | 0.00 | 0.00 | 0.00 | 63 | 1013.0 |
| 20260504200537 | 20 | 182 | 3.2 | 17.7 | 0.00 | 0.00 | 0.00 | 63 | 1013.0 |
| 20260504200048 | 19 | 187 | 6.4 | 17.7 | 0.00 | 0.00 | 0.00 | 64 | 1013.1 |
| 20260504195536 | 19 | 239 | 1.6 | 9.7 | 0.00 | 0.00 | 0.00 | 66 | 1013.1 |
| 20260504195038 | 18 | 205 | 0.0 | 11.3 | 0.00 | 0.00 | 0.00 | 66 | 1013.1 |
| 20260504194547 | 18 | 148 | 3.2 | 11.3 | 0.00 | 0.00 | 0.00 | 65 | 1013.1 |
| 20260504194041 | 18 | 206 | 3.2 | 8.0 | 0.00 | 0.00 | 0.00 | 67 | 1013.1 |
| 20260504193538 | 17 | 185 | 1.6 | 11.3 | 0.00 | 0.00 | 0.00 | 68 | 1013.2 |
| 20260504193048 | 17 | 252 | 4.8 | 11.3 | 0.00 | 0.00 | 0.00 | 68 | 1013.2 |
| 20260504192536 | 17 | 161 | 3.2 | 14.5 | 0.00 | 0.00 | 0.00 | 69 | 1013.4 |
| 20260504192037 | 17 | 131 | 3.2 | 14.5 | 0.00 | 0.00 | 0.00 | 69 | 1013.3 |
| 20260504191550 | 17 | 142 | 6.4 | 14.5 | 0.00 | 0.00 | 0.00 | 70 | 1013.3 |
| 20260504191038 | 17 | 205 | 3.2 | 11.3 | 0.00 | 0.00 | 0.00 | 70 | 1013.4 |
| 20260504190538 | 17 | 155 | 3.2 | 11.3 | 0.00 | 0.00 | 0.00 | 71 | 1013.4 |
| 20260504190042 | 16 | 178 | 3.2 | 12.9 | 0.00 | 0.00 | 0.00 | 72 | 1013.4 |
| 20260504185538 | 16 | 0 | 1.6 | 12.9 | 0.00 | 0.00 | 0.00 | 72 | 1013.5 |
| 20260504185040 | 16 | 0 | 3.2 | 8.0 | 0.00 | 0.00 | 0.00 | 72 | 1013.5 |
| 20260504184547 | 16 | 195 | 1.6 | 11.3 | 0.00 | 0.00 | 0.00 | 73 | 1013.5 |
| 20260504184037 | 16 | 0 | 1.6 | 12.9 | 0.00 | 0.00 | 0.00 | 74 | 1013.6 |
| 20260504183537 | 16 | 198 | 3.2 | 12.9 | 0.00 | 0.00 | 0.00 | 73 | 1013.6 |
| 20260504183047 | 15 | 175 | 3.2 | 14.5 | 0.00 | 0.00 | 0.00 | 74 | 1013.5 |
| 20260504182540 | 15 | 162 | 4.8 | 14.5 | 0.00 | 0.00 | 0.00 | 73 | 1013.6 |
| 20260504182038 | 15 | 150 | 4.8 | 9.7 | 0.00 | 0.00 | 0.00 | 73 | 1013.5 |
| 20260504181548 | 15 | 264 | 3.2 | 9.7 | 0.00 | 0.00 | 0.00 | 74 | 1013.4 |
| 20260504181038 | 15 | 0 | 1.6 | 9.7 | 0.00 | 0.00 | 0.00 | 75 | 1013.4 |
| 20260504180538 | 15 | 205 | 1.6 | 11.3 | 0.00 | 0.00 | 0.00 | 76 | 1013.6 |
| 20260504180044 | 15 | 191 | 3.2 | 11.3 | 0.00 | 0.00 | 0.00 | 76 | 1013.5 |
| 20260504175537 | 15 | 213 | 4.8 | 11.3 | 0.00 | 0.00 | 0.00 | 75 | 1013.5 |
| 20260504175037 | 15 | 119 | 3.2 | 12.9 | 0.00 | 0.00 | 0.00 | 76 | 1013.4 |
| 20260504174548 | 15 | 228 | 6.4 | 12.9 | 0.00 | 0.00 | 0.00 | 74 | 1013.4 |
| 20260504174038 | 15 | 147 | 4.8 | 11.3 | 0.00 | 0.00 | 0.00 | 75 | 1013.4 |
| 20260504173539 | 15 | 137 | 3.2 | 11.3 | 0.00 | 0.00 | 0.00 | 76 | 1013.4 |
| 20260504173105 | 15 | 189 | 3.2 | 16.1 | 0.00 | 0.00 | 0.00 | 76 | 1013.4 |
| 20260504172539 | 14 | 209 | 6.4 | 17.7 | 0.00 | 0.00 | 0.00 | 77 | 1013.4 |
| 20260504172039 | 14 | 161 | 8.0 | 17.7 | 0.00 | 0.00 | 0.00 | 76 | 1013.4 |
| 20260504171546 | 14 | 227 | 8.0 | 14.5 | 0.00 | 0.00 | 0.00 | 76 | 1013.4 |
| 20260504171039 | 14 | 190 | 4.8 | 19.3 | 0.00 | 0.00 | 0.00 | 77 | 1013.3 |
| 20260504170539 | 14 | 146 | 3.2 | 19.3 | 0.00 | 0.00 | 0.00 | 78 | 1013.3 |
| 20260504151039 | 12 | 200 | 3.2 | 9.7 | 0.00 | 0.00 | 0.00 | 83 | 1013.1 |
| 20260504150540 | 12 | 181 | 3.2 | 9.7 | 0.00 | 0.00 | 0.00 | 84 | 1013.0 |